Time,TemperatureF,DewpointF,PressureIn,WindDirection,WindDirectionDegrees,WindSpeedMPH,WindSpeedGustMPH,Humidity,HourlyPrecipIn,Conditions,Clouds,dailyrainin,SoftwareType,DateUTC
2013-07-02 00:01:00,54.0,49.0,30.43,North,-999,-999.0,-999.0,83,-99.99,,,-99.99,,2013-07-02 06:01:00,
2013-07-02 00:11:00,54.0,49.0,30.43,North,-999,-999.0,-999.0,83,-99.99,,,-99.99,,2013-07-02 06:11:00,
2013-07-02 00:23:00,53.0,48.0,30.43,North,-999,-999.0,-999.0,84,-99.99,,,-99.99,,2013-07-02 06:23:00,
2013-07-02 00:33:00,53.0,48.0,30.43,North,-999,-999.0,-999.0,84,-99.99,,,-99.99,,2013-07-02 06:33:00,
2013-07-02 00:43:00,53.0,48.0,30.43,North,-999,-999.0,-999.0,84,-99.99,,,-99.99,,2013-07-02 06:43:00,
2013-07-02 00:53:00,53.0,48.0,30.43,North,-999,-999.0,-999.0,84,-99.99,,,-99.99,,2013-07-02 06:53:00,
2013-07-02 01:01:00,53.0,48.0,30.43,North,-999,-999.0,-999.0,84,-99.99,,,-99.99,,2013-07-02 07:01:00,
2013-07-02 01:11:00,53.0,48.0,30.43,North,-999,-999.0,-999.0,84,-99.99,,,-99.99,,2013-07-02 07:11:00,
2013-07-02 01:22:00,52.0,48.0,30.42,North,-999,-999.0,-999.0,84,-99.99,,,-99.99,,2013-07-02 07:22:00,
2013-07-02 01:33:00,52.0,48.0,30.42,North,-999,-999.0,-999.0,84,-99.99,,,-99.99,,2013-07-02 07:33:00,
2013-07-02 01:44:00,52.0,48.0,30.42,North,-999,-999.0,-999.0,84,-99.99,,,-99.99,,2013-07-02 07:44:00,
2013-07-02 01:53:00,52.0,47.0,30.42,North,-999,-999.0,-999.0,85,-99.99,,,-99.99,,2013-07-02 07:53:00,
2013-07-02 02:02:00,52.0,47.0,30.42,North,-999,-999.0,-999.0,85,-99.99,,,-99.99,,2013-07-02 08:02:00,
2013-07-02 02:12:00,52.0,47.0,30.42,North,-999,-999.0,-999.0,85,-99.99,,,-99.99,,2013-07-02 08:12:00,
2013-07-02 02:22:00,52.0,47.0,30.42,North,-999,-999.0,-999.0,85,-99.99,,,-99.99,,2013-07-02 08:22:00,
2013-07-02 02:33:00,52.0,47.0,30.42,North,-999,-999.0,-999.0,85,-99.99,,,-99.99,,2013-07-02 08:33:00,
2013-07-02 02:44:00,52.0,47.0,30.42,North,-999,-999.0,-999.0,85,-99.99,,,-99.99,,2013-07-02 08:44:00,
2013-07-02 02:53:00,51.0,47.0,30.41,North,-999,-999.0,-999.0,85,-99.99,,,-99.99,,2013-07-02 08:53:00,
2013-07-02 03:01:00,51.0,47.0,30.41,North,-999,-999.0,-999.0,85,-99.99,,,-99.99,,2013-07-02 09:01:00,
2013-07-02 03:23:00,51.0,47.0,30.41,North,-999,-999.0,-999.0,85,-99.99,,,-99.99,,2013-07-02 09:23:00,
2013-07-02 03:33:00,51.0,47.0,30.41,North,-999,-999.0,-999.0,85,-99.99,,,-99.99,,2013-07-02 09:33:00,
2013-07-02 03:43:00,51.0,47.0,30.41,North,-999,-999.0,-999.0,85,-99.99,,,-99.99,,2013-07-02 09:43:00,
2013-07-02 03:52:00,50.0,46.0,30.41,North,-999,-999.0,-999.0,87,-99.99,,,-99.99,,2013-07-02 09:52:00,
2013-07-02 04:01:00,50.0,46.0,30.41,North,-999,-999.0,-999.0,87,-99.99,,,-99.99,,2013-07-02 10:01:00,
2013-07-02 04:11:00,50.0,46.0,30.41,North,-999,-999.0,-999.0,87,-99.99,,,-99.99,,2013-07-02 10:11:00,
2013-07-02 04:22:00,49.0,45.0,30.41,North,-999,-999.0,-999.0,86,-99.99,,,-99.99,,2013-07-02 10:22:00,
2013-07-02 04:33:00,49.0,45.0,30.41,North,-999,-999.0,-999.0,86,-99.99,,,-99.99,,2013-07-02 10:33:00,
2013-07-02 04:44:00,49.0,45.0,30.41,North,-999,-999.0,-999.0,86,-99.99,,,-99.99,,2013-07-02 10:44:00,
2013-07-02 04:52:00,49.0,44.0,30.41,North,-999,-999.0,-999.0,84,-99.99,,,-99.99,,2013-07-02 10:52:00,
2013-07-02 05:01:00,49.0,44.0,30.41,North,-999,-999.0,-999.0,84,-99.99,,,-99.99,,2013-07-02 11:01:00,
2013-07-02 05:11:00,49.0,44.0,30.41,North,-999,-999.0,-999.0,84,-99.99,,,-99.99,,2013-07-02 11:11:00,
2013-07-02 05:22:00,49.0,44.0,30.41,North,-999,-999.0,-999.0,84,-99.99,,,-99.99,,2013-07-02 11:22:00,
2013-07-02 05:33:00,49.0,44.0,30.41,North,-999,-999.0,-999.0,84,-99.99,,,-99.99,,2013-07-02 11:33:00,
2013-07-02 05:42:00,49.0,44.0,30.41,North,-999,-999.0,-999.0,84,-99.99,,,-99.99,,2013-07-02 11:42:00,
2013-07-02 05:52:00,47.0,45.0,30.41,North,-999,-999.0,-999.0,89,-99.99,,,-99.99,,2013-07-02 11:52:00,
2013-07-02 06:01:00,47.0,45.0,30.41,North,-999,-999.0,-999.0,89,-99.99,,,-99.99,,2013-07-02 12:01:00,
2013-07-02 06:11:00,47.0,45.0,30.41,North,-999,-999.0,-999.0,89,-99.99,,,-99.99,,2013-07-02 12:11:00,
2013-07-02 06:23:00,48.0,45.0,30.42,North,-999,-999.0,-999.0,89,-99.99,,,-99.99,,2013-07-02 12:23:00,
2013-07-02 06:33:00,48.0,45.0,30.42,North,-999,-999.0,-999.0,89,-99.99,,,-99.99,,2013-07-02 12:33:00,
2013-07-02 06:43:00,48.0,45.0,30.42,North,-999,-999.0,-999.0,89,-99.99,,,-99.99,,2013-07-02 12:43:00,
2013-07-02 06:52:00,48.0,44.0,30.42,North,-999,-999.0,-999.0,88,-99.99,,,-99.99,,2013-07-02 12:52:00,
2013-07-02 07:01:00,48.0,44.0,30.42,North,-999,-999.0,-999.0,88,-99.99,,,-99.99,,2013-07-02 13:01:00,
2013-07-02 07:11:00,48.0,44.0,30.42,North,-999,-999.0,-999.0,88,-99.99,,,-99.99,,2013-07-02 13:11:00,
2013-07-02 07:22:00,50.0,44.0,30.42,North,-999,-999.0,-999.0,79,-99.99,,,-99.99,,2013-07-02 13:22:00,
2013-07-02 07:34:00,50.0,44.0,30.42,North,-999,-999.0,-999.0,79,-99.99,,,-99.99,,2013-07-02 13:34:00,
2013-07-02 07:43:00,50.0,44.0,30.42,North,-999,-999.0,-999.0,79,-99.99,,,-99.99,,2013-07-02 13:43:00,
2013-07-02 07:52:00,51.0,44.0,30.42,North,-999,-999.0,-999.0,76,-99.99,,,-99.99,,2013-07-02 13:52:00,
2013-07-02 08:01:00,51.0,44.0,30.42,North,-999,-999.0,-999.0,76,-99.99,,,-99.99,,2013-07-02 14:01:00,
2013-07-02 08:11:00,51.0,44.0,30.42,North,-999,-999.0,-999.0,76,-99.99,,,-99.99,,2013-07-02 14:11:00,
2013-07-02 08:22:00,54.0,46.0,30.42,North,-999,-999.0,-999.0,75,-99.99,,,-99.99,,2013-07-02 14:22:00,
2013-07-02 08:33:00,54.0,46.0,30.42,North,-999,-999.0,-999.0,75,-99.99,,,-99.99,,2013-07-02 14:33:00,
2013-07-02 08:43:00,54.0,46.0,30.42,North,-999,-999.0,-999.0,75,-99.99,,,-99.99,,2013-07-02 14:43:00,
2013-07-02 08:53:00,60.0,46.0,30.42,North,-999,-999.0,-999.0,58,-99.99,,,-99.99,,2013-07-02 14:53:00,
2013-07-02 09:02:00,60.0,46.0,30.42,North,-999,-999.0,-999.0,58,-99.99,,,-99.99,,2013-07-02 15:02:00,
2013-07-02 09:11:00,60.0,46.0,30.42,North,-999,-999.0,-999.0,58,-99.99,,,-99.99,,2013-07-02 15:11:00,
2013-07-02 09:33:00,66.0,44.0,30.42,North,-999,-999.0,-999.0,44,-99.99,,,-99.99,,2013-07-02 15:33:00,
2013-07-02 09:44:00,66.0,44.0,30.42,North,-999,-999.0,-999.0,44,-99.99,,,-99.99,,2013-07-02 15:44:00,
2013-07-02 09:53:00,65.0,43.0,30.42,North,-999,-999.0,-999.0,45,-99.99,,,-99.99,,2013-07-02 15:53:00,
2013-07-02 10:01:00,65.0,43.0,30.42,North,-999,-999.0,-999.0,45,-99.99,,,-99.99,,2013-07-02 16:01:00,
2013-07-02 10:12:00,65.0,43.0,30.42,North,-999,-999.0,-999.0,45,-99.99,,,-99.99,,2013-07-02 16:12:00,
2013-07-02 10:22:00,70.0,39.0,30.42,North,-999,-999.0,-999.0,32,-99.99,,,-99.99,,2013-07-02 16:22:00,
2013-07-02 10:33:00,70.0,39.0,30.42,North,-999,-999.0,-999.0,32,-99.99,,,-99.99,,2013-07-02 16:33:00,
2013-07-02 10:43:00,70.0,39.0,30.42,North,-999,-999.0,-999.0,32,-99.99,,,-99.99,,2013-07-02 16:43:00,
2013-07-02 10:52:00,68.0,37.0,30.41,North,-999,-999.0,-999.0,32,-99.99,,,-99.99,,2013-07-02 16:52:00,
2013-07-02 11:02:00,68.0,37.0,30.41,North,-999,-999.0,-999.0,32,-99.99,,,-99.99,,2013-07-02 17:02:00,
2013-07-02 11:22:00,70.0,36.0,30.41,North,-999,-999.0,-999.0,29,-99.99,,,-99.99,,2013-07-02 17:22:00,
2013-07-02 11:33:00,70.0,36.0,30.41,North,-999,-999.0,-999.0,29,-99.99,,,-99.99,,2013-07-02 17:33:00,
2013-07-02 11:43:00,70.0,36.0,30.41,North,-999,-999.0,-999.0,29,-99.99,,,-99.99,,2013-07-02 17:43:00,
2013-07-02 11:53:00,70.0,37.0,30.41,North,-999,-999.0,-999.0,29,-99.99,,,-99.99,,2013-07-02 17:53:00,
2013-07-02 12:02:00,70.0,37.0,30.41,North,-999,-999.0,-999.0,29,-99.99,,,-99.99,,2013-07-02 18:02:00,
2013-07-02 12:12:00,70.0,37.0,30.41,North,-999,-999.0,-999.0,29,-99.99,,,-99.99,,2013-07-02 18:12:00,
2013-07-02 12:23:00,71.0,36.0,30.40,North,-999,-999.0,-999.0,27,-99.99,,,-99.99,,2013-07-02 18:23:00,
2013-07-02 12:34:00,71.0,36.0,30.40,North,-999,-999.0,-999.0,27,-99.99,,,-99.99,,2013-07-02 18:34:00,
2013-07-02 12:43:00,71.0,36.0,30.40,North,-999,-999.0,-999.0,27,-99.99,,,-99.99,,2013-07-02 18:43:00,
2013-07-02 12:53:00,71.0,35.0,30.39,North,-999,-999.0,-999.0,27,-99.99,,,-99.99,,2013-07-02 18:53:00,
2013-07-02 13:01:00,71.0,35.0,30.39,North,-999,-999.0,-999.0,27,-99.99,,,-99.99,,2013-07-02 19:01:00,
2013-07-02 13:12:00,71.0,35.0,30.39,North,-999,-999.0,-999.0,27,-99.99,,,-99.99,,2013-07-02 19:12:00,
2013-07-02 13:22:00,74.0,38.0,30.38,North,-999,-999.0,-999.0,26,-99.99,,,-99.99,,2013-07-02 19:22:00,
2013-07-02 13:34:00,74.0,38.0,30.38,North,-999,-999.0,-999.0,26,-99.99,,,-99.99,,2013-07-02 19:34:00,
2013-07-02 13:43:00,74.0,38.0,30.38,North,-999,-999.0,-999.0,26,-99.99,,,-99.99,,2013-07-02 19:43:00,
2013-07-02 13:53:00,72.0,35.0,30.38,North,-999,-999.0,-999.0,25,-99.99,,,-99.99,,2013-07-02 19:53:00,
2013-07-02 14:02:00,72.0,35.0,30.38,North,-999,-999.0,-999.0,25,-99.99,,,-99.99,,2013-07-02 20:02:00,
2013-07-02 14:11:00,72.0,35.0,30.38,North,-999,-999.0,-999.0,25,-99.99,,,-99.99,,2013-07-02 20:11:00,
2013-07-02 14:22:00,72.0,35.0,30.37,North,-999,-999.0,-999.0,26,-99.99,,,-99.99,,2013-07-02 20:22:00,
2013-07-02 14:33:00,72.0,35.0,30.37,North,-999,-999.0,-999.0,26,-99.99,,,-99.99,,2013-07-02 20:33:00,
2013-07-02 14:43:00,72.0,35.0,30.37,North,-999,-999.0,-999.0,26,-99.99,,,-99.99,,2013-07-02 20:43:00,
2013-07-02 14:52:00,75.0,35.0,30.36,North,-999,-999.0,-999.0,23,-99.99,,,-99.99,,2013-07-02 20:52:00,
2013-07-02 15:02:00,75.0,35.0,30.36,North,-999,-999.0,-999.0,23,-99.99,,,-99.99,,2013-07-02 21:02:00,
2013-07-02 15:11:00,75.0,35.0,30.36,North,-999,-999.0,-999.0,23,-99.99,,,-99.99,,2013-07-02 21:11:00,
2013-07-02 15:22:00,74.0,36.0,30.36,North,-999,-999.0,-999.0,25,-99.99,,,-99.99,,2013-07-02 21:22:00,
2013-07-02 15:33:00,74.0,36.0,30.36,North,-999,-999.0,-999.0,25,-99.99,,,-99.99,,2013-07-02 21:33:00,
2013-07-02 15:44:00,74.0,36.0,30.36,North,-999,-999.0,-999.0,25,-99.99,,,-99.99,,2013-07-02 21:44:00,
2013-07-02 15:52:00,73.0,37.0,30.35,North,-999,-999.0,-999.0,26,-99.99,,,-99.99,,2013-07-02 21:52:00,
2013-07-02 16:01:00,73.0,37.0,30.35,North,-999,-999.0,-999.0,26,-99.99,,,-99.99,,2013-07-02 22:01:00,
2013-07-02 16:11:00,73.0,37.0,30.35,North,-999,-999.0,-999.0,26,-99.99,,,-99.99,,2013-07-02 22:11:00,
2013-07-02 16:22:00,73.0,36.0,30.34,North,-999,-999.0,-999.0,26,-99.99,,,-99.99,,2013-07-02 22:22:00,
2013-07-02 16:34:00,73.0,36.0,30.34,North,-999,-999.0,-999.0,26,-99.99,,,-99.99,,2013-07-02 22:34:00,
2013-07-02 16:43:00,73.0,36.0,30.34,North,-999,-999.0,-999.0,26,-99.99,,,-99.99,,2013-07-02 22:43:00,
2013-07-02 16:53:00,73.0,36.0,30.33,North,-999,-999.0,-999.0,26,-99.99,,,-99.99,,2013-07-02 22:53:00,
2013-07-02 17:01:00,73.0,36.0,30.33,North,-999,-999.0,-999.0,26,-99.99,,,-99.99,,2013-07-02 23:01:00,
2013-07-02 17:11:00,73.0,36.0,30.33,North,-999,-999.0,-999.0,26,-99.99,,,-99.99,,2013-07-02 23:11:00,
2013-07-02 17:22:00,75.0,38.0,30.33,North,-999,-999.0,-999.0,26,-99.99,,,-99.99,,2013-07-02 23:22:00,
2013-07-02 17:30:00,74.0,36.0,30.33,North,-999,-999.0,-999.0,25,-99.99,,,-99.99,,2013-07-02 23:30:00,
2013-07-02 17:33:00,75.0,38.0,30.33,North,-999,-999.0,-999.0,26,-99.99,,,-99.99,,2013-07-02 23:33:00,
2013-07-02 17:44:00,75.0,38.0,30.33,North,-999,-999.0,-999.0,26,-99.99,,,-99.99,,2013-07-02 23:44:00,
2013-07-02 17:52:00,74.0,36.0,30.33,North,-999,-999.0,-999.0,25,-99.99,,,-99.99,,2013-07-02 23:52:00,
2013-07-02 18:01:00,74.0,36.0,30.33,North,-999,-999.0,-999.0,25,-99.99,,,-99.99,,2013-07-03 00:01:00,
2013-07-02 18:11:00,74.0,36.0,30.33,North,-999,-999.0,-999.0,25,-99.99,,,-99.99,,2013-07-03 00:11:00,
2013-07-02 18:22:00,74.0,36.0,30.33,North,-999,-999.0,-999.0,25,-99.99,,,-99.99,,2013-07-03 00:22:00,
2013-07-02 18:52:00,74.0,37.0,30.32,North,-999,-999.0,-999.0,26,-99.99,,,-99.99,,2013-07-03 00:52:00,
2013-07-02 19:01:00,74.0,37.0,30.32,North,-999,-999.0,-999.0,26,-99.99,,,-99.99,,2013-07-03 01:01:00,
2013-07-02 19:11:00,74.0,37.0,30.32,North,-999,-999.0,-999.0,26,-99.99,,,-99.99,,2013-07-03 01:11:00,
2013-07-02 19:22:00,73.0,36.0,30.33,North,-999,-999.0,-999.0,26,-99.99,,,-99.99,,2013-07-03 01:22:00,
2013-07-02 19:33:00,73.0,36.0,30.33,North,-999,-999.0,-999.0,26,-99.99,,,-99.99,,2013-07-03 01:33:00,
2013-07-02 19:43:00,73.0,36.0,30.33,North,-999,-999.0,-999.0,26,-99.99,,,-99.99,,2013-07-03 01:43:00,
2013-07-02 19:59:00,71.0,38.0,30.33,North,-999,-999.0,-999.0,29,-99.99,,,-99.99,,2013-07-03 01:59:00,
2013-07-02 20:13:00,71.0,38.0,30.33,North,-999,-999.0,-999.0,29,-99.99,,,-99.99,,2013-07-03 02:13:00,
2013-07-02 20:26:00,69.0,37.0,30.33,North,-999,-999.0,-999.0,31,-99.99,,,-99.99,,2013-07-03 02:26:00,
2013-07-02 20:37:00,69.0,37.0,30.33,North,-999,-999.0,-999.0,31,-99.99,,,-99.99,,2013-07-03 02:37:00,
2013-07-02 20:45:00,69.0,37.0,30.33,North,-999,-999.0,-999.0,31,-99.99,,,-99.99,,2013-07-03 02:45:00,
2013-07-02 20:58:00,66.0,38.0,30.33,North,-999,-999.0,-999.0,35,-99.99,,,-99.99,,2013-07-03 02:58:00,
2013-07-02 21:13:00,66.0,38.0,30.33,North,-999,-999.0,-999.0,35,-99.99,,,-99.99,,2013-07-03 03:13:00,
2013-07-02 21:25:00,65.0,37.0,30.33,North,-999,-999.0,-999.0,35,-99.99,,,-99.99,,2013-07-03 03:25:00,
2013-07-02 21:35:00,65.0,37.0,30.33,North,-999,-999.0,-999.0,35,-99.99,,,-99.99,,2013-07-03 03:35:00,
2013-07-02 21:49:00,65.0,37.0,30.33,North,-999,-999.0,-999.0,35,-99.99,,,-99.99,,2013-07-03 03:49:00,
2013-07-02 21:58:00,63.0,38.0,30.34,North,-999,-999.0,-999.0,39,-99.99,,,-99.99,,2013-07-03 03:58:00,
2013-07-02 22:01:00,63.0,38.0,30.34,North,-999,-999.0,-999.0,39,-99.99,,,-99.99,,2013-07-03 04:01:00,
2013-07-02 22:22:00,62.0,38.0,30.34,North,-999,-999.0,-999.0,41,-99.99,,,-99.99,,2013-07-03 04:22:00,
2013-07-02 22:33:00,62.0,38.0,30.34,North,-999,-999.0,-999.0,41,-99.99,,,-99.99,,2013-07-03 04:33:00,
2013-07-02 22:43:00,62.0,38.0,30.34,North,-999,-999.0,-999.0,41,-99.99,,,-99.99,,2013-07-03 04:43:00,
2013-07-02 22:52:00,61.0,38.0,30.34,North,-999,-999.0,-999.0,42,-99.99,,,-99.99,,2013-07-03 04:52:00,
2013-07-02 23:01:00,61.0,38.0,30.34,North,-999,-999.0,-999.0,42,-99.99,,,-99.99,,2013-07-03 05:01:00,
2013-07-02 23:23:00,60.0,39.0,30.34,North,-999,-999.0,-999.0,45,-99.99,,,-99.99,,2013-07-03 05:23:00,
2013-07-02 23:35:00,60.0,39.0,30.34,North,-999,-999.0,-999.0,45,-99.99,,,-99.99,,2013-07-03 05:35:00,
2013-07-02 23:48:00,60.0,39.0,30.34,North,-999,-999.0,-999.0,45,-99.99,,,-99.99,,2013-07-03 05:48:00,